Regional Weather Roundup
Issued by NWS Kansas City/Pleasant Hill, MO

Home | Current Version | Previous Version | Graphics & Text | Print | Product List | Glossary Off
Versions: 1 2 3 4 5 6 7 8 9 10 11 12 13 14 15 16 17 18 19 20 21 22 23 24 25 26 27 28 29 30 31 32 33 34 35 36 37 38 39 40 41 42 43 44 45 46 47 48 49 50

023
ASUS43 KEAX 230510
RWREAX

WEATHER ROUNDUP FOR EASTERN KANSAS AND NORTHWEST MISSOURI
NATIONAL WEATHER SERVICE KANSAS CITY/PLEASANT HILL MO
1100 PM CST MON JAN 22 2018

KSZ040-057-103>105-MOZ028-029-037-043-230600-
...KANSAS CITY METROPOLITAN AREA...

CITY           SKY/WX    TMP DP  RH WIND       PRES   REMARKS
K.C. INTL      LGT SNOW  30  27  88 NW17G24   29.80R FOG     WCI  18
K.C. DOWNTOWN  LGT SNOW  32  27  81 NW17G26   29.80R WCI  21
LEES SUMMIT    CLOUDY    32  28  85 NW20G30   29.78R WCI  20
OLATHE - IXD   CLOUDY    30  26  85 NW17G28   29.84R WCI  18
OLATHE - OJC   FLURRIES  29  26  89 NW15G28   29.82R WCI  18
LAWRENCE       CLOUDY    31  26  82 W17G28    29.87R WCI  19

$$

MOZ001>008-011>017-020>025-030>033-038>040-044>046-053-054-230600-
...NORTHERN AND CENTRAL MISSOURI...

CITY           SKY/WX    TMP DP  RH WIND       PRES   REMARKS
ST. JOSEPH     MIX PCPN  32  29  88 NW25G35   29.80R WCI  19
MOSBY            N/A     34  28  80 NW15G25   29.77R WCI  24
WARRENSBURG    CLOUDY    32  28  86 W18G26    29.75R WCI  20
WHITEMAN AFB   LGT RAIN  34  28  80 NW21G29   29.70R WCI  22
CLINTON        CLOUDY    32  28  86 W20       29.79R WCI  20
SEDALIA        LGT SNOW  34  32  92 W17G28    29.72R FOG     WCI  23
WARSAW         NOT AVBL
CHILLICOTHE      N/A     33  29  85 NW13G24   29.69R WCI  24
KIRKSVILLE     CLOUDY    36  36 100 NW10      29.58R WCI  28

$$

MOZ041-047>049-056>058-063>065-088>090-097-230600-
...EASTERN AND SOUTHERN MISSOURI...

CITY           SKY/WX    TMP DP  RH WIND       PRES   REMARKS
ST. LOUIS INTL CLOUDY    39  29  67 W24G33    29.63R WCI  28
SPIRIT OF STL  CLOUDY    37  29  72 W25G40    29.63R WCI  25
COLUMBIA       CLOUDY    34  32  92 W18G29    29.64R WCI  23
JEFFERSON CITY CLOUDY    35  31  85 W17G28    29.68R WCI  25
ROLLA          CLOUDY    33  28  81 W22G32    29.69R WCI  21
OSAGE BEACH    CLOUDY    34  29  82 W21G29    29.74R WCI  22
SPRINGFIELD    CLOUDY    34  28  79 W20G33    29.82R WCI  23
BRANSON        CLOUDY    36  27  69 W14G28    29.85R WCI  27
JOPLIN         CLOUDY    35  28  75 W20G31    29.91R WCI  24
WEST PLAINS    CLOUDY    36  26  67 W18G41    29.77R WCI  26

$$

IAZ060-094-KSZ022-034>040-054-083-096-NEZ052-066-093-230600-
...KANSAS...SOUTHEAST NEBRASKA AND IOWA...

CITY           SKY/WX    TMP DP  RH WIND       PRES   REMARKS
TOPEKA         CLOUDY    31  26  82 NW18G29   29.90R WCI  19
MANHATTAN      PTCLDY    29  22  75 NW7       29.95R WCI  22
EMPORIA        CLOUDY    33  26  75 NW15G24   29.92R WCI  23
WICHITA        PTCLDY    34  23  64 NW16      30.01R WCI  24
OMAHA          LGT SNOW  30  26  85 NW25G36   29.88R BLWGSNOWWCI  16
LINCOLN        MIX PCPN  26  22  84 NW23G30   29.94R WCI  11
FALLS CITY     CLOUDY    30  25  81 NW25G35   29.85R WCI  16
LAMONI         CLOUDY    31  26  82 NW23G32   29.67R WCI  18
DES MOINES     LGT SNOW  31  27  85 N23G30    29.66R FOG     WCI  18

$$





USA.gov is the U.S. government's official web portal to all federal, state and local government web resources and services.